Theta_e
316 312 311 307 299 296 293 297 299 300 300 303 303 302 302 303 299 298 313 322 331 336 341 350 352 355 355 354 353 353 352 351 350 350 353 353 352 351 348 347 345 344 343 342 341 340 338 336 336
313 312 307 299 293 290 292 296 298 300 302 303 302 303 302 301 306 311 317 325 334 337 343 349 348 353 354 354 353 352 352 351 349 349 350 351 350 349 347 345 344 343 341 340 339 337 334 333 332
311 306 303 295 290 290 293 296 298 300 301 302 302 304 304 304 308 312 318 325 335 337 344 348 347 353 355 354 353 352 352 352 349 348 348 349 349 349 347 345 343 342 340 339 337 334 331 328 327
308 304 298 292 292 294 296 296 298 300 301 301 302 301 303 309 310 315 321 331 335 337 344 345 348 353 354 353 352 352 352 351 350 348 347 347 348 348 347 344 341 339 338 337 335 332 328 325 323
301 299 293 291 293 295 295 298 299 299 300 301 301 301 302 307 315 321 325 329 332 337 341 345 346 351 353 353 352 351 351 351 351 350 349 349 350 348 345 343 339 337 335 334 333 329 326 322 320
299 296 290 289 292 295 297 297 298 297 298 300 300 300 303 307 310 318 322 327 332 335 339 342 339 343 348 350 351 351 350 351 351 350 349 348 347 345 344 343 339 336 334 332 332 327 324 320 319
296 292 289 290 291 294 296 297 297 297 297 299 302 299 304 304 306 313 321 320 326 334 336 339 342 342 337 343 344 346 348 348 348 347 347 345 345 345 343 342 340 335 334 332 331 326 322 319 317
295 293 290 290 291 293 297 297 298 298 298 301 303 298 301 302 308 313 314 311 317 319 329 334 338 341 344 347 337 339 341 343 343 342 340 337 337 339 337 334 337 336 334 332 329 325 322 318 314
297 289 287 290 290 293 297 297 299 299 299 299 300 300 298 299 302 301 302 301 302 303 305 313 329 337 340 343 341 332 334 337 337 338 334 331 342 340 336 330 333 335 334 331 328 324 322 314 307
293 288 289 292 293 294 296 296 297 298 297 298 299 298 298 298 298 297 297 297 298 299 301 302 304 318 336 339 342 340 339 343 344 343 341 342 341 338 332 326 328 332 330 330 328 324 317 308 300
295 290 292 295 296 297 296 296 298 297 295 298 299 295 296 296 296 295 295 295 295 297 299 300 301 303 314 337 339 340 340 343 340 339 338 337 334 331 329 328 328 328 322 324 322 319 316 308 302
293 295 295 298 298 297 296 297 296 296 298 296 295 295 294 293 293 293 293 294 295 296 298 299 301 302 306 328 337 338 337 336 337 337 339 334 331 330 328 326 326 325 323 320 319 316 314 310 304
295 295 296 297 297 296 295 295 295 295 293 294 294 293 292 292 292 293 293 295 295 295 297 298 300 303 307 319 334 335 336 336 335 334 332 332 331 328 327 326 324 324 321 319 317 315 315 312 307
294 294 294 295 295 295 295 293 294 294 293 293 292 291 291 291 291 292 292 293 293 294 295 297 300 305 311 322 331 332 332 331 332 331 330 330 330 329 326 324 322 321 322 319 317 313 313 313 307
294 292 292 292 293 293 294 291 292 294 293 291 290 290 290 290 291 290 291 291 292 293 294 296 302 310 320 323 326 327 326 324 323 323 323 325 326 325 324 323 322 321 318 317 313 310 308 306 302
290 289 288 291 293 293 294 291 293 293 293 290 289 288 289 289 289 289 290 290 291 292 293 296 300 311 314 314 314 312 311 311 311 311 313 315 317 321 321 320 318 318 317 314 312 309 309 307 302
287 286 285 288 293 292 292 291 292 293 291 288 288 288 288 288 288 289 289 289 290 291 292 295 298 303 306 305 304 303 303 302 303 303 304 307 310 314 313 312 312 313 312 309 308 305 303 302 301
285 284 284 285 290 291 289 291 291 289 290 287 287 287 287 287 287 288 288 289 289 290 292 294 296 297 301 302 301 300 299 298 297 297 298 299 302 307 307 306 307 309 307 305 305 303 301 299 297
287 285 286 287 290 290 289 289 291 288 287 286 286 286 286 286 287 288 288 287 288 289 290 291 293 294 297 298 298 297 294 294 294 293 293 294 296 298 302 303 303 305 303 302 302 301 300 299 297
285 284 284 287 289 289 288 288 289 288 287 287 286 286 286 285 286 286 286 286 286 286 287 288 290 291 294 295 295 295 293 291 290 289 289 290 291 293 294 295 296 298 299 299 299 299 300 300 296
284 284 284 286 287 287 286 286 286 286 287 287 287 286 286 285 285 285 285 284 284 284 284 286 287 288 289 292 293 292 291 289 287 287 286 287 288 288 289 290 291 292 292 293 294 296 296 296 298
283 287 287 286 285 282 285 280 285 285 284 285 285 284 285 285 285 284 284 283 283 283 284 285 285 286 286 288 287 287 285 283 284 285 286 286 286 286 286 287 287 287 288 288 290 291 293 295 293
287 288 287 286 284 282 282 280 283 284 283 283 284 284 284 285 284 283 283 283 283 283 283 283 284 284 284 285 286 285 283 284 284 284 284 285 285 285 285 285 285 285 286 286 286 287 287 289 290
288 286 285 283 281 277 282 282 281 283 285 284 284 284 284 284 284 283 283 283 282 283 282 282 283 282 283 283 283 283 283 283 283 283 283 283 283 283 283 284 284 284 284 284 284 285 285 285 286
286 285 279 277 277 278 280 279 283 286 286 286 285 284 284 284 283 283 282 281 282 282 282 282 282 281 282 282 282 282 282 282 282 282 282 282 282 281 281 282 282 282 283 283 283 283 283 283 283
284 285 280 274 274 276 280 278 284 285 285 285 286 286 285 284 283 283 282 281 281 282 282 282 281 281 281 281 281 281 281 282 281 281 281 281 281 281 281 281 281 281 281 281 281 281 281 282 282
285 282 285 278 269 274 280 282 285 284 283 283 283 284 284 283 283 283 283 281 280 281 281 281 281 281 281 281 281 280 281 281 280 280 281 280 281 281 281 281 280 280 280 280 280 280 279 280 280
286 288 282 280 273 271 278 279 281 283 283 282 282 283 284 284 283 284 283 282 281 280 281 281 281 281 281 281 281 280 280 280 280 281 280 280 280 280 280 279 279 279 279 279 279 279 279 279 279
284 283 282 283 280 274 272 277 283 285 284 282 283 284 284 284 284 284 284 283 282 281 280 280 280 280 280 281 280 280 280 280 281 280 280 280 280 279 279 279 278 278 278 278 278 277 278 277 278
285 284 284 280 277 276 276 279 285 285 285 285 284 285 285 285 285 284 284 283 281 281 280 280 280 280 281 280 280 281 281 280 280 279 279 279 278 278 278 277 277 277 277 277 276 276 277 277 276
Wind_Speed
4 3 2 5 5 5 1 1 1 2 1 1 2 1 3 2 3 2 1 6 2 8 11 10 11 11 10 10 9 9 9 10 10 10 9 11 10 13 15 13 12 11 10 10 10 10 11 11 10
2 1 5 3 6 4 3 3 1 1 1 1 1 1 3 1 1 3 2 5 2 8 9 9 9 11 12 11 10 8 8 9 9 9 9 9 10 12 12 12 11 10 9 9 9 9 10 9 9
3 4 4 5 4 4 3 3 2 2 2 1 1 2 1 3 2 2 4 6 4 8 9 8 7 8 10 11 10 10 8 8 8 8 8 8 8 9 12 12 11 9 8 8 8 9 9 9 9
3 5 5 6 3 1 0 2 2 2 2 3 0 3 2 1 1 3 3 5 4 5 7 9 11 9 10 11 10 9 8 8 7 7 7 7 8 8 10 12 9 8 8 7 7 8 10 10 9
5 3 5 4 0 1 3 3 1 1 0 2 2 2 2 3 3 2 4 3 3 4 4 5 8 8 11 11 11 10 9 8 7 7 6 5 5 10 10 9 7 6 6 6 7 8 9 9 9
5 3 5 2 1 2 2 2 1 1 1 1 2 2 2 3 5 5 3 4 3 2 3 3 4 4 6 9 10 9 9 8 7 7 5 5 8 7 7 6 5 4 5 5 6 7 8 9 9
7 5 5 5 2 0 2 3 1 2 1 2 1 2 2 5 7 5 7 8 7 6 2 1 3 5 5 6 8 8 7 6 6 6 5 6 7 6 6 4 3 2 4 5 6 6 7 8 8
6 5 4 2 3 2 1 0 0 2 0 4 1 1 2 5 8 6 7 10 8 8 6 3 3 4 6 6 7 8 7 7 7 5 4 5 5 7 6 4 2 4 5 5 6 6 7 8 8
3 6 3 6 6 3 1 1 1 1 1 4 2 5 5 9 8 11 7 9 9 9 9 9 6 4 4 5 5 5 6 7 7 6 4 2 3 4 5 4 3 4 5 4 6 5 8 8 8
5 4 7 5 4 4 1 1 2 2 4 2 2 7 9 10 12 12 11 10 10 12 11 9 8 7 4 3 4 4 4 4 5 5 5 5 6 6 5 4 5 5 6 5 5 7 8 6 3
2 4 4 3 4 4 4 1 1 2 2 3 1 3 8 11 12 11 9 7 8 8 7 10 8 7 6 3 3 2 2 3 1 3 4 3 2 3 2 2 2 2 3 3 4 3 2 3 3
2 1 2 1 2 3 3 3 3 3 3 7 9 6 5 12 11 10 10 10 10 10 10 11 10 8 5 3 2 3 2 2 1 2 2 3 3 2 3 2 3 3 2 3 3 2 4 2 2
2 0 2 3 4 3 3 4 3 3 7 8 9 11 11 9 9 8 7 7 9 9 11 12 10 8 5 5 2 3 2 1 1 2 2 2 2 3 2 3 3 4 3 3 3 2 2 2 1
3 2 4 5 3 3 5 2 4 3 7 10 11 10 9 10 9 8 11 11 12 10 11 12 11 9 3 5 5 4 3 4 4 5 6 3 2 1 2 3 3 3 3 1 1 2 2 2 1
3 3 6 2 1 3 6 2 4 6 7 8 8 7 8 8 9 10 8 8 10 10 12 12 10 9 7 8 6 6 7 9 8 8 10 9 5 3 2 1 2 3 1 1 2 2 1 0 1
2 4 3 2 1 1 4 4 1 5 5 6 6 6 7 9 8 9 9 8 10 9 11 10 8 10 13 13 10 9 10 9 8 8 8 12 11 10 7 5 4 3 3 2 3 3 3 3 3
6 3 4 7 1 1 2 5 5 5 6 6 5 5 6 6 9 9 9 8 9 9 9 10 11 11 12 13 11 12 12 10 8 8 8 11 11 11 9 7 7 6 6 5 3 3 3 2 3
7 4 4 5 3 2 2 8 5 4 5 5 4 4 6 7 9 9 10 10 10 11 11 11 10 12 10 9 10 10 11 10 10 10 10 13 10 11 8 7 8 6 7 5 3 4 2 2 1
6 4 5 3 3 3 6 6 6 4 5 6 5 5 5 6 5 8 9 10 10 12 13 14 12 11 7 6 6 8 8 8 10 10 15 14 13 12 10 7 9 7 8 7 6 2 4 2 3
4 4 6 5 3 3 5 9 3 1 2 3 6 5 5 4 5 7 8 8 9 8 8 9 9 9 8 4 4 5 7 9 9 9 13 15 15 15 13 12 11 12 8 10 10 8 2 2 4
5 7 5 6 1 2 1 7 4 1 3 4 3 4 3 5 5 5 8 10 10 12 12 11 11 11 10 8 7 7 6 6 8 9 10 12 13 13 14 14 11 12 10 9 10 10 10 5 4
6 9 7 5 4 5 1 6 4 4 4 5 6 6 5 4 3 4 5 6 8 8 8 10 10 11 11 11 11 13 10 10 6 8 7 9 12 13 13 12 11 12 9 11 10 10 9 7 8
6 6 7 4 4 2 3 1 8 4 7 9 8 6 6 5 5 6 5 5 5 6 7 7 9 12 11 11 10 10 12 8 6 7 10 10 10 12 12 12 11 11 9 10 11 10 11 9 6
9 7 7 5 3 2 8 8 5 7 8 6 9 9 10 7 6 5 4 5 5 4 6 7 9 10 10 10 10 11 11 9 8 8 8 7 7 8 11 11 10 10 9 10 9 9 11 9 7
2 7 1 2 1 7 2 3 8 5 5 5 16 15 11 8 7 6 6 5 5 3 4 5 8 9 8 10 10 10 10 11 12 8 7 7 6 7 9 9 10 8 9 9 9 9 9 9 8
8 8 7 9 5 3 2 7 7 2 3 1 6 13 12 10 8 7 7 6 6 6 8 6 6 8 7 7 8 7 8 7 7 8 6 5 6 6 7 8 8 9 9 9 8 6 6 7 7
7 7 4 8 2 3 5 5 3 2 2 3 9 12 14 11 11 10 7 7 6 6 6 7 7 7 6 7 6 7 7 8 8 8 6 6 5 5 7 7 7 7 8 8 7 5 6 6 6
4 8 3 3 3 6 3 4 5 6 8 6 10 15 13 11 10 9 8 8 7 5 5 6 6 8 7 7 6 7 7 7 7 6 7 7 6 6 6 6 6 6 7 7 7 6 6 7 6
4 4 2 4 4 6 2 6 6 8 10 15 13 13 14 13 12 10 9 8 7 6 7 7 7 8 7 6 6 7 7 6 6 7 6 6 5 5 6 7 7 7 8 8 7 7 7 8 9
2 8 8 6 6 2 2 7 1 4 8 12 13 14 12 12 13 11 10 9 9 10 8 9 7 7 7 7 6 7 7 6 6 6 5 5 6 5 6 6 6 7 8 8 9 9 9 10 12
Wind_Direction
16 28 71 42 58 64 20 85 269 4 17 279 112 141 140 149 143 147 240 186 284 170 171 177 163 164 157 148 139 138 133 130 126 123 118 114 110 103 88 87 80 73 66 63 64 58 56 52 53
11 49 47 79 82 69 289 274 170 238 249 317 122 49 52 33 275 310 45 161 149 158 171 175 170 174 157 151 147 148 147 141 134 128 126 121 106 98 102 96 87 78 70 63 55 52 51 47 47
116 44 78 85 100 145 170 227 244 306 331 80 79 60 99 344 18 12 352 162 132 160 168 173 172 172 158 153 158 158 153 146 138 134 133 123 119 116 118 107 95 86 75 68 56 47 40 36 27
68 20 48 78 100 213 50 299 223 352 16 36 34 60 317 315 348 304 338 130 129 164 171 175 177 175 169 160 161 161 157 154 150 149 148 151 149 138 127 109 103 94 83 66 54 42 32 27 23
40 60 57 83 60 237 258 273 183 62 50 1 350 342 22 12 328 47 77 135 127 155 182 194 192 175 160 161 164 165 164 166 165 165 168 169 181 129 117 117 118 111 90 73 55 45 33 28 28
48 89 67 152 224 283 277 312 260 115 20 332 66 106 59 344 2 4 45 57 59 142 161 184 213 219 184 172 168 170 171 176 182 178 188 166 130 124 121 130 127 109 84 70 66 52 37 31 34
103 78 157 155 184 130 197 326 185 104 37 37 182 87 150 4 348 14 40 37 34 38 45 349 213 220 238 208 177 178 186 198 202 198 203 188 155 141 135 136 138 101 86 73 87 67 47 39 37
102 91 116 186 177 189 316 132 252 74 222 310 232 50 25 348 343 35 56 39 33 24 17 349 285 235 224 230 209 188 194 198 202 202 201 183 178 153 142 113 70 75 73 69 83 60 48 46 36
123 66 150 185 156 190 325 113 299 27 4 1 8 59 353 351 16 39 18 10 8 10 5 2 336 268 240 224 232 209 207 220 202 200 180 159 176 166 153 146 135 99 96 77 95 66 66 47 33
80 103 205 188 189 156 119 161 285 100 3 5 68 43 25 28 41 47 32 13 4 356 352 360 353 329 271 222 202 195 179 230 223 204 182 185 185 177 170 145 131 116 113 76 106 90 79 54 27
144 162 188 221 196 148 144 245 211 147 117 229 25 60 23 32 37 38 28 16 344 328 336 345 342 329 302 245 193 176 172 213 307 220 182 141 123 140 139 139 142 122 111 112 104 105 63 49 34
79 106 189 311 144 134 165 168 267 152 123 81 81 77 47 37 31 21 8 358 352 343 336 336 339 329 307 265 179 153 144 154 199 314 260 152 148 161 168 163 159 154 160 157 151 161 147 109 61
115 318 195 285 274 244 98 234 239 51 98 90 76 57 47 38 28 18 2 356 348 353 340 337 329 326 307 235 143 119 110 126 153 179 130 138 161 175 171 172 185 177 179 178 178 180 180 165 156
185 240 267 276 233 227 182 184 147 155 125 78 68 59 46 38 20 13 12 359 357 344 345 334 336 335 309 155 120 99 85 60 40 33 29 16 339 247 197 187 205 201 195 178 166 197 231 246 216
117 304 324 296 287 230 153 125 209 121 113 87 75 74 61 42 32 26 3 352 348 341 334 350 351 350 70 97 79 66 62 60 50 44 31 33 28 19 318 308 288 327 333 178 152 149 160 330 343
67 52 355 284 292 355 148 248 126 161 117 89 78 60 54 40 30 19 11 2 354 351 356 354 10 37 60 68 71 69 62 60 51 43 38 38 35 39 44 42 42 27 47 35 18 12 349 352 356
8 225 213 313 259 139 166 248 148 10 104 101 70 60 58 43 30 16 10 3 359 355 1 16 30 47 71 76 78 72 69 60 54 50 43 43 44 44 60 52 40 35 49 46 39 75 61 16 2
194 207 236 229 203 147 175 263 141 24 100 112 95 70 58 49 23 6 9 7 5 8 17 26 29 31 51 71 75 70 64 56 48 43 41 36 34 40 58 57 53 47 54 56 53 73 88 72 288
139 169 218 215 235 163 222 251 283 111 99 129 134 113 82 48 9 23 17 15 20 30 33 28 39 24 43 62 75 69 69 57 52 45 42 40 37 39 43 50 46 44 54 49 38 39 29 41 335
140 159 246 292 218 151 267 257 240 71 148 168 157 141 119 101 45 23 16 21 37 44 46 56 56 51 55 75 93 96 96 72 65 53 46 41 40 37 39 41 42 37 44 39 29 25 9 41 16
205 191 197 214 42 198 341 276 214 65 99 115 126 134 135 136 107 39 26 20 12 22 17 30 40 45 42 50 88 90 85 74 60 47 51 41 46 46 47 46 44 44 43 45 35 22 27 10 19
215 198 172 166 128 232 142 274 281 178 178 188 172 170 165 160 121 87 50 38 21 23 24 34 45 51 50 57 71 74 83 88 71 72 65 54 46 47 49 51 50 54 49 45 38 32 31 28 28
233 133 159 139 150 118 224 139 259 154 227 198 199 193 184 187 164 131 105 70 33 15 40 40 55 56 51 61 77 89 94 96 95 83 69 52 43 46 46 45 47 44 41 44 44 42 43 42 34
151 80 56 57 96 256 217 180 247 203 207 158 163 184 187 185 179 146 121 96 67 16 50 58 69 60 54 64 65 87 97 95 89 72 67 54 47 42 35 39 46 44 42 38 34 34 37 31 36
140 114 54 345 294 232 44 163 249 223 200 183 182 178 174 180 180 167 153 140 122 110 64 67 83 79 66 78 81 89 92 88 85 82 78 71 62 51 38 38 42 38 36 36 32 33 29 21 22
189 166 166 197 200 245 45 230 252 75 68 315 161 167 169 178 180 183 173 157 154 173 139 126 103 102 94 92 92 92 95 97 95 85 84 74 70 61 43 46 43 37 34 30 25 24 17 9 4
185 197 160 106 42 65 216 283 264 109 90 111 153 166 181 184 186 181 176 168 180 173 156 152 138 124 122 122 120 105 102 97 101 103 97 84 69 63 49 42 39 32 28 26 15 10 359 353 345
177 154 96 2 193 248 249 251 232 215 205 180 182 189 185 187 185 184 183 176 185 178 165 156 157 150 155 146 138 124 120 116 117 107 89 83 78 62 50 40 29 21 17 13 4 355 345 342 339
156 175 69 130 150 184 231 248 209 195 176 192 198 193 187 190 191 191 185 183 173 175 174 172 175 166 165 165 149 139 135 126 108 92 83 82 75 52 40 27 16 10 2 359 350 342 334 329 324
195 188 164 162 212 251 165 248 222 249 199 182 190 194 194 191 192 188 184 177 178 188 179 186 187 177 179 173 159 148 137 129 116 105 97 78 59 42 31 17 9 360 356 351 345 336 334 330 326